This is the latest recevied weather packets stored in our database for station/object KQ4HDO. If no packets are shown the sender has not sent any weather packets the latest 10 day(s).
| Time | Temp. | Humidity | Pressure | Rain* | Wind** | Luminosity | Snow |
|---|---|---|---|---|---|---|---|
| 1777405637 | 16.11° C | 70% | 1013.8 hPa | 0 mm | - | - | - |
| 1777402203 | 17.22° C | 67% | 1016 hPa | 0 mm | - | - | - |
| 1777400103 | 17.22° C | 63% | 1014.6 hPa | 0 mm | - | - | - |
| 1777399203 | 16.67° C | 64% | 1014.6 hPa | 0 mm | - | - | - |
| 1777395603 | 15.56° C | 68% | 1016.3 hPa | 0 mm | - | - | - |
| 1777394403 | 14.44° C | 68% | 1016.9 hPa | 0 mm | - | - | - |
| 1777393638 | 15° C | 71% | 1016.9 hPa | 0 mm | - | - | - |
| 1777392603 | 13.89° C | 72% | 1016.8 hPa | 0 mm | - | - | - |
| 1777392303 | 13.33° C | 71% | 1016.9 hPa | 0 mm | - | - | - |
| 1777390203 | 13.33° C | 72% | 1017.3 hPa | 0 mm | - | - | - |
| 1777386437 | 12.78° C | 72% | 1016.8 hPa | 0 mm | - | - | - |
| 1777385703 | 12.78° C | 73% | 1016.8 hPa | 0 mm | - | - | - |
| 1777384203 | 12.22° C | 74% | 1016 hPa | 0 mm | - | - | - |
| 1777383603 | 12.22° C | 73% | 1015.4 hPa | 0 mm | - | - | - |
| 1777383003 | 12.22° C | 74% | 1015.5 hPa | 0 mm | - | - | - |
| 1777382404 | 12.22° C | 74% | 1015.6 hPa | 0 mm | - | - | - |
| 1777382103 | 12.22° C | 75% | 1015.6 hPa | 0 mm | - | - | - |
| 1777381803 | 12.22° C | 75% | 1015.7 hPa | 0 mm | - | - | - |
| 1777381203 | 12.22° C | 76% | 1015.9 hPa | 0 mm | - | - | - |
| 1777380903 | 12.22° C | 75% | 1015.5 hPa | 0 mm | - | - | - |
| 1777380003 | 12.22° C | 79% | 1014.8 hPa | 0 mm | - | - | - |
| 1777379103 | 12.22° C | 80% | 1014.5 hPa | 0 mm | - | - | - |
| 1777377737 | 11.67° C | 80% | 1014.4 hPa | 0 mm | - | - | - |
| 1777374303 | 12.78° C | 79% | 1013.7 hPa | 0 mm | - | - | - |
| 1777373703 | 12.78° C | 79% | 1013.7 hPa | 0 mm | - | - | - |
* Rain latest hour (hover to see other rain measurements)
** Current wind speed in m/s (hover to see current wind gust speed)